KNACKSAT-2

Last updated on Fri Jun 19 2026 20:03:22 GMT+0000 (Coordinated Universal Time)

1 67683U 98067XZ 26170.59247606 .00040473 00000+0 49084-3 0 9990 2 67683 51.6307 282.3774 0008934 225.7617 134.2643 15.60167582 20658
UTC large
Height (km)
Speed (km/s)
/
Latitude / Longitude
Inclination (degrees)
Orbital Period (minutes)
Azimuth
Elevation
Range (km)
Doppler Factor

Next 0 passes for location: London (51.5072 / 0.1276)

No passes found over London.
KNACKSAT-2